Flag for Germany Weather past 2 weeks in Wittenberg, Saxony-Anhalt, Germany

Now
48 °F

Partly sunny.


Feels Like: 40 °F
Forecast: 48 / 51 °F
Wind: 24 mph from Southwest

Location: Holzdorf

Current Time: Dec 22, 2014 at 10:42:42 AM

Latest Report: Dec 22, 2014 at 9:20 AM


Visibility: N/A

Pressure: 29.92 "Hg

Humidity: 76%

Dew point: 41 °F

Location of WittenbergLocation

Historic Weather in Wittenberg — Graph

°F

Wittenberg temperature yesterday

Maximum temperature yesterday: 45 °F (at 12:20 PM)
Minimum temperature yesterday: 39 °F (at 12:20 AM)
Average temperature yesterday: 42 °F

Past Weeks' High & Low Weather Summary

 TemperatureHumidityPressure
High55 °F (Dec 19, 1:20 AM)100% (Dec 7, 9:20 AM)30.39 "Hg (Dec 7, 9:20 AM)
Low21 °F (Dec 9, 4:20 AM)62% (Dec 12, 7:20 PM)29.45 "Hg (Dec 12, 6:20 PM)
Average40 °F85%29.92 "Hg
* Reported Dec 7 9:20 AM — Dec 22 9:20 AM, Wittenberg, Weather by CustomWeather, © 2014

Note: Actual official high and low records may vary slightly from our data, if they occured in-between our weather recording intervals... More about our weather records

Advertising

Wittenberg weather history for previous 24 hours

 ConditionsComfort  
Time TempWeatherWind HumidityBarometerVisibility
9:20 AM
Dec 22
48 °FPartly sunny.24 mph76%29.92 "HgN/A
8:20 AM48 °FPartly sunny.25 mph76%29.92 "HgN/A
7:20 AM48 °FLight rain. Passing clouds.25 mph76%29.92 "HgN/A
6:20 AM48 °FPassing clouds.25 mph76%29.92 "HgN/A
5:20 AM46 °FPassing clouds.25 mph76%29.92 "HgN/A
4:20 AM48 °FPassing clouds.31 mph71%29.95 "HgN/A
4:03 AM46 °FPassing clouds.28 mph76%29.95 "HgN/A
3:20 AM46 °FPassing clouds.26 mph76%29.95 "HgN/A
2:20 AM46 °FPassing clouds.23 mph76%29.98 "HgN/A
1:20 AM46 °FPassing clouds.23 mph76%30.01 "HgN/A
12:20 AM46 °FPassing clouds.20 mph76%30.01 "HgN/A
11:20 PM
Dec 21
45 °FLight rain. Passing clouds.18 mph81%30.07 "HgN/A
10:20 PM45 °FPassing clouds.18 mph76%30.09 "HgN/A
9:20 PM45 °FPassing clouds.18 mph76%30.09 "HgN/A
8:20 PM45 °FPassing clouds.16 mph76%30.12 "HgN/A
7:20 PM43 °FLight rain. Passing clouds.20 mph76%30.15 "HgN/A
6:20 PM43 °FPartly cloudy.18 mph76%30.15 "HgN/A
5:20 PM43 °FPartly cloudy.16 mph81%30.18 "HgN/A
4:20 PM43 °FPassing clouds.14 mph76%30.21 "HgN/A
3:20 PM45 °FPartly sunny.15 mph71%30.21 "HgN/A
2:20 PM45 °FBroken clouds.16 mph71%30.24 "HgN/A
1:20 PM45 °FBroken clouds.18 mph71%30.24 "HgN/A
12:20 PM45 °FBroken clouds.20 mph71%30.24 "HgN/A
11:20 AM43 °FPartly sunny.15 mph76%30.27 "HgN/A
10:20 AM41 °FScattered clouds.16 mph81%30.27 "HgN/A
Weather by CustomWeather, © 2014

See weather overviewHow to use our weather pages